Weather in Mayrhofen

Austria     47°10′03″N   11°51′32″E
temp.,
°C
wind,
m/s
gust,
m/s
humid.,
%
clouds,
%
prec.,
mm/h
press.,
hPa
HPBL,
m
18 april, sun
sun1823:00−5ene129999 0.6 102175
02:00−5se119897 0.9 102160
05:00−8sse119698 0.1 102243
08:00−5wsw0091100 0.3 1021198
11:00−2nne1177100 0.2 1019827
14:000n2175100 0.4 1018861
17:000nne2383100 0.4 1017640
20:00−2nne2399100 1.1 1019149
19 april, mon
mon1923:00−4ne11100100 0.6 102241
02:00−5se1198100 0.9 102248
05:00−6s1198100 0.2 102234
08:00−4nnw019498 0.4 1021189
11:00−1n228497 0.2 1019766
14:00+1n228199 0.7 1018834
17:00+1nne2383100 0.9 1016700
20:00−2ne1197100 1.7 101913
20 april, tue
tue2023:00−3sse1199100 0.3 102017
02:00−3w119599 0.3 101935
05:00−3w119696 0.0 101845
08:00−2nw1193100 0.1 1019280
11:00+1nnw118580 0.1 1017721
14:00+2nne1282100 0.3 1015702
17:00+2nne2288100 0.5 1015497
20:00−1ese119850 1.0 101739
21 april, wed
wed2123:00−4s229414 0.1 102020
02:00−5s32937 0.1 102130
05:00−5s33945 0.0 102128
08:00−1ssw12885 0.0 101881
11:00+4nnw117516 0.0 1017752
14:00+5ese117340 0.6 1015780
17:00+5nne1283100 1.6 1015412
20:00+1sse1190100 3.4 101715
22 april, thu
thu2223:00−1s229083 0.2 102019
02:00−2ssw229217 0.2 102022
05:00−3ssw22935 0.0 102122
08:00+1wsw118999 0.0 1019102
11:00+4n2285100 0.5 1018647
14:00+4nne2388100 2.9 1018629
17:00+2nne4498100 2.6 1020484
20:000nne129999 3.2 1023199